EST,Max TemperatureF,Mean TemperatureF,Min TemperatureF,Max Dew PointF,MeanDew PointF,Min DewpointF,Max Humidity, Mean Humidity, Min Humidity, Max Sea Level PressureIn, Mean Sea Level PressureIn, Min Sea Level PressureIn, Max VisibilityMiles, Mean VisibilityMiles, Min VisibilityMiles, Max Wind SpeedMPH, Mean Wind SpeedMPH, Max Gust SpeedMPH,PrecipitationIn, CloudCover, Events, WindDirDegrees
2014-1-1,22,19,15,12,10,5,88,70,51,30.42,30.36,30.26,10,5,1,18,9,24,0.04,7,Snow,34
2014-1-2,15,10,5,11,8,1,88,82,76,30.33,30.14,29.98,3,1,0,28,16,36,0.34,8,Fog-Snow,48
2014-1-3,8,1,-6,1,-2,-9,87,74,60,30.46,30.27,30.02,10,5,1,21,8,26,0.02,6,Snow,317
2014-1-4,37,19,1,12,4,-4,75,51,27,30.33,30.15,30.02,10,10,10,23,9,31,0.00,5,,197
2014-1-5,47,37,27,39,19,10,76,58,40,30.15,29.94,29.44,10,10,5,23,6,32,0.02,7,Rain,156
2014-1-6,48,26,4,42,14,-1,86,75,63,29.84,29.61,29.25,10,6,1,38,23,49,0.07,7,Rain-Snow,247
2014-1-7,5,1,-3,-2,-5,-9,86,77,68,30.30,30.07,29.80,10,3,0,31,22,45,0.02,7,Snow,244
2014-1-8,20,12,4,11,3,-2,83,69,54,30.48,30.41,30.31,10,10,8,20,10,24,T,7,Snow,240
2014-1-9,25,18,11,14,9,5,80,65,50,30.68,30.56,30.41,10,10,6,13,7,15,T,4,Snow,200
2014-1-10,41,32,22,36,27,16,92,81,70,30.40,30.26,29.96,10,6,2,12,5,16,0.06,8,Snow,167
2014-1-11,53,45,37,48,40,31,93,85,76,29.88,29.46,29.23,10,9,2,36,14,48,0.29,8,Rain,221
2014-1-12,37,34,31,31,28,25,89,79,69,29.99,29.80,29.50,10,9,5,29,15,35,T,7,Rain-Snow,255
2014-1-13,53,44,34,41,31,25,71,56,41,29.94,29.78,29.65,10,10,10,24,12,29,T,6,Rain,205
2014-1-14,46,36,25,43,34,23,92,81,69,29.85,29.75,29.64,10,9,5,16,7,20,T,7,Rain,257
2014-1-15,37,33,28,31,24,17,85,72,58,30.01,29.90,29.78,10,9,6,22,10,30,0.02,7,Rain-Snow,251
2014-1-16,34,30,26,22,18,13,81,61,41,29.99,29.93,29.86,10,10,5,14,6,21,T,7,Snow,201
2014-1-17,40,33,26,25,21,17,78,61,44,29.87,29.83,29.79,10,10,3,25,7,31,T,6,Snow,212
2014-1-18,30,24,17,25,17,10,92,80,67,29.92,29.86,29.80,10,6,1,25,15,33,0.05,7,Snow,257
2014-1-19,31,24,17,22,16,9,80,69,57,29.85,29.64,29.45,10,8,2,37,17,48,0.01,7,Snow,234
2014-1-20,31,21,11,27,15,0,92,76,59,30.06,29.73,29.49,10,6,1,25,12,33,0.10,8,Rain-Snow,319
2014-1-21,11,8,4,3,-1,-4,86,78,69,30.17,30.12,30.04,10,5,1,16,9,20,0.04,7,Snow,5
2014-1-22,9,2,-5,0,-4,-8,86,75,63,30.14,30.10,30.01,10,6,1,14,6,15,0.01,6,Snow,338
2014-1-23,13,8,2,5,1,-4,88,76,63,30.38,30.19,30.04,10,6,0,16,8,21,0.03,7,Snow,277
2014-1-24,18,9,0,2,-2,-5,87,67,47,30.39,30.16,29.73,10,9,6,29,13,37,T,5,Snow,223
2014-1-25,27,19,11,20,12,-2,84,66,47,29.70,29.42,29.24,10,5,0,24,16,37,0.04,8,Snow,257
2014-1-26,27,16,5,19,4,-3,76,65,53,29.81,29.66,29.47,10,8,2,20,12,25,T,7,Snow,215
2014-1-27,35,20,5,27,9,-9,92,69,46,30.16,29.74,29.29,10,6,0,32,17,43,0.07,6,Fog-Snow,257
2014-1-28,10,5,0,-5,-8,-13,69,60,51,30.36,30.27,30.18,10,10,10,24,15,32,0.00,2,,238
2014-1-29,15,7,-1,6,-2,-12,73,62,51,30.27,30.16,30.07,10,9,7,36,17,48,T,4,,243
2014-1-30,31,19,7,4,2,-2,63,46,28,30.32,30.16,29.90,10,10,10,21,11,28,0.00,5,,198
2014-1-31,35,32,28,25,19,4,72,52,31,30.19,30.05,29.92,10,10,9,23,11,30,T,8,Snow,246